Regional Weather Roundup
Issued by NWS

Home | Current Version | Previous Version | Graphics & Text | Print | Product List | Glossary On
Versions: 1 2 3 4 5 6 7 8 9 10 11 12 13 14 15 16 17 18 19 20 21 22 23 24 25 26 27 28 29 30 31 32 33 34 35 36 37 38 39 40 41 42 43 44 45 46 47 48 49 50
000
ASUS43 KDMX 270106
RWRIA

WEATHER ROUNDUP FOR IOWA
NATIONAL WEATHER SERVICE DES MOINES IA
800 PM CDT MON JUN 26 2017

NOTE: "FAIR" INDICATES FEW OR NO CLOUDS BELOW 12,000 FEET WITH NO
SIGNIFICANT WEATHER AND/OR OBSTRUCTIONS TO VISIBILITY.

* - THESE STATIONS ARE NOT NWS STATIONS...THUS NOT UNDER NWS
QUALITY CONTROL.  THEY ALSO DO NOT REPORT WEATHER SUCH
AS PRECIPITATION OR FOG.

IAZ001>003-012>014-020>022-031>034-043>046-270200-
   NORTHWEST IOWA

CITY           SKY/WX    TMP DP  RH WIND       PRES   REMARKS
CARROLL *      CLEAR     70  41  35 NE8       30.12S
CHEROKEE *     CLEAR     68  42  39 NE6       30.13F
DENISON *      CLEAR     70  45  40 N7        30.14S
LE MARS *      SUNNY     70  39  32 N6        30.14S
ORANGE CITY *  SUNNY     70  39  32 NE3       30.14S
SHELDON *      CLEAR     68  41  37 N6        30.13S
SIOUX CITY     SUNNY     71  41  33 NE7       30.12S
SPENCER        CLEAR     69  38  32 NE5       30.14S
STORM LAKE *   CLEAR     68  39  34 N6        30.14S
$$

IAZ055>058-069>071-079>083-090>094-270200-
   SOUTHWEST IOWA

CITY           SKY/WX    TMP DP  RH WIND       PRES   REMARKS
ATLANTIC *     CLEAR     70  48  46 NE6       30.11S
AUDUBON *      CLEAR     70  48  46 CALM      30.13S
CLARINDA *     CLEAR     70  61  73 SW6       30.12S
COUNCIL BLFS * CLEAR     72  52  49 NE5       30.11S
CRESTON *      CLEAR     70  52  52 NE7       30.12S
HARLAN  *      CLEAR     70  48  46 NE5       30.15S
LAMONI         CLEAR     69  57  65 SW5       30.09F
RED OAK *      CLEAR     70  55  60 N7        30.10S
SHENANDOAH *   PTCLDY    70  61  73 S5        30.10F
$$

IAZ047>049-059>061-072>074-084-270200-
   CENTRAL IOWA

CITY           SKY/WX    TMP DP  RH WIND       PRES   REMARKS
AMES           PTCLDY    69  43  38 NE9       30.11S
ANKENY *       CLEAR     68  43  40 N6        30.12R
BOONE *        CLEAR     68  43  40 N8        30.12R
CHARITON *     CLEAR     70  52  52 N8        30.10R
DES MOINES     PTCLDY    71  43  36 N6        30.11R
GRINNELL*      CLEAR     68  43  39 N3        30.12R
KNOXVILLE *    CLEAR     70  43  37 N7        30.09S
MARSHALLTOWN   CLEAR     68  43  40 N7        30.11R
NEWTON *       CLEAR     68  43  40 N6        30.11R
PELLA *        CLEAR     70  44  39 N3        30.11S
PERRY *          N/A     69  42  36 N6        30.12R
$$

IAZ004>006-015-016-023>025-035-036-270200-
   NORTH CENTRAL IOWA

CITY           SKY/WX    TMP DP  RH WIND       PRES   REMARKS
ALGONA *       CLEAR     68  39  34 N9        30.14S
CLARION *        N/A     68  41  37 N9        30.13S
ESTHERVILLE    PTCLDY    66  43  43 N3        30.14R
FORT DODGE *   CLEAR     68  39  34 N5        30.14S
MASON CITY     CLEAR     66  41  40 N9        30.14R
FOREST CITY *    N/A     68  27  21 NE6       30.13S
WEBSTER CITY * CLEAR     68  41  37 N8        30.10S
IOWA FALLS *     N/A     68  42  39 N6        30.13S
$$

IAZ007>011-017>019-026>030-037>042-050>054-066-270200-
   NORTHEAST IOWA

CITY           SKY/WX    TMP DP  RH WIND       PRES   REMARKS
CEDAR RAPIDS   CLEAR     67  44  43 N12       30.09R
CHARLES CITY * CLEAR     66  41  39 N5        30.12S
CLINTON *      CLEAR     65  44  46 N9        30.10R
DECORAH *      PTCLDY    64  43  45 N8        30.10S
DUBUQUE        CLEAR     64  44  48 N7        30.10R
MONTICELLO *   CLEAR     66  43  42 N7        30.10R
OELWEIN *      CLEAR     66  43  42 N8        30.12S
WATERLOO       CLEAR     66  41  40 N8        30.10S
$$

IAZ064-065-067-068-078-270200-
   EAST CENTRAL IOWA

CITY           SKY/WX    TMP DP  RH WIND       PRES   REMARKS
DAVENPORT      PTCLDY    66  44  45 N10       30.09R
IOWA CITY      CLEAR     70  43  37 N8        30.10R
MT. PLEASANT * PTCLDY    67  51  56 N3        30.09S
MUSCATINE *    CLEAR     70  43  37 N8        30.09R
QUAD CITIES    CLEAR     69  42  37 N9        30.07R
$$

IAZ062-063-075>077-085>089-095>099-270200-
   SOUTHEAST IOWA

CITY           SKY/WX    TMP DP  RH WIND       PRES   REMARKS
BURLINGTON     CLEAR     66  57  72 NW3       30.08S
FAIRFIELD *    MOCLDY    68  52  56 N7        30.09R
FORT MADISON * PTCLDY    66  55  68 CALM      30.10R
KEOKUK *       PTCLDY    68  54  60 NE5       30.08R
OSKALOOSA *      N/A     68  47  46 N6        30.10R
CENTERVILLE *    N/A     68  50  52 CALM      30.11S
OTTUMWA        MOCLDY    68  51  54 NW7       30.09S
WASHINGTON *   CLEAR     68  46  45 N9        30.10R
$$

ABBREVIATIONS USED IN REMARKS
   TC - TEMPERATURES IN CELSIUS
  WCI - WIND CHILL INDEX
   HX - HEAT INDEX
  VSB - VISIBILITY
$$





USA.gov is the U.S. government's official web portal to all federal, state and local government web resources and services.